Satellite: FITSAT 1
Catalog number: 38853
Epoch time:      12332.21473223
Element set:      55
Inclination:      051.6587 deg
RA of node:       030.7227 deg
Eccentricity:    0.0015098
Arg of perigee:   343.1282 deg
Mean anomaly:     016.9151 deg
Mean motion:   15.56123409 rev/day
Decay rate:     5.1019e-04 rev/day^2
Epoch rev:             831
Checksum:              266

Satellite: TechEdSat
Catalog number: 38854
Epoch time:      12332.44540524
Element set:      58
Inclination:      051.6474 deg
RA of node:       029.2575 deg
Eccentricity:    0.0015367
Arg of perigee:   347.4661 deg
Mean anomaly:     012.5460 deg
Mean motion:   15.57799903 rev/day
Decay rate:     7.4272e-04 rev/day^2
Epoch rev:             835
Checksum:              308

Satellite: F 1
Catalog number: 38855
Epoch time:      12332.38474622
Element set:      62
Inclination:      051.6501 deg
RA of node:       029.5966 deg
Eccentricity:    0.0017291
Arg of perigee:   349.1798 deg
Mean anomaly:     010.8814 deg
Mean motion:   15.57610976 rev/day
Decay rate:     7.1099e-04 rev/day^2
Epoch rev:             823
Checksum:              316

Satellite: WeWish
Catalog number: 38856
Epoch time:      12332.52956975
Element set:      66
Inclination:      051.6480 deg
RA of node:       028.3173 deg
Eccentricity:    0.0019249
Arg of perigee:   341.1869 deg
Mean anomaly:     018.8393 deg
Mean motion:   15.60930885 rev/day
Decay rate:    1.14695e-03 rev/day^2
Epoch rev:             826
Checksum:              331

/EX




More information about the Keps mailing list